Other Surface Observations
Issued by NWS Charleston, SC

Home | Current Version | Previous Version | Text Only | Print | Product List | Glossary On
Versions: 1 2 3 4 5 6 7 8 9 10 11 12 13 14 15 16 17 18 19 20 21 22 23 24 25 26 27 28 29 30 31 32 33 34 35 36 37 38 39 40 41 42 43 44 45 46 47 48 49 50
905
SXUS52 KCHS 130326
OSOCHS

MARINE OBSERVATIONS
NATIONAL WEATHER SERVICE CHARLESTON SC
1000 PM EST TUE DEC 12 2017

...DOWNTOWN CHARLESTON AND HARBOR...

CITY           SKY/WX    TMP DP  RH WIND       PRES   REMARKS
WATERFRONT PRK   N/A     49  31  49 W9G23     29.70R

...LAKE MOULTRIE...

CITY           SKY/WX    TMP DP  RH WIND       PRES   REMARKS
PINOPOLIS        N/A     48  36  61 W20       29.76R

...LAKE AND SUPPLEMENTAL COASTAL OBSERVATIONS...

STATION/POSITION TIME  TEMP    WIND        PRES    WAVE   SWELL
                       AIR SEA DIR/SP/G            HT/PER HT/PER/DIR
                 (UTC) (F)     (DEG/KT/KT) (MB)    (FT/S) (FT/S/D)
FORT PULASKI     0300   50 55  290/ 22/ 28 1013.2
SAPELO ISLAND    NOT AVBL
WINYAH BAY       0230   50     280/ 11     1009.0R
LAKE MURRAY      0230   44     290/  8/ 14 1010.5S
ACE BASIN NERRS  0245   47     290/  4     1012.0R


...C-MAN AND BUOY OBSERVATIONS...

STATION/POSITION TIME  TEMP    WIND        PRES    WAVE   SWELL
                       AIR SEA DIR/SP/G            HT/PER HT/PER/DIR
                 (UTC) (F)     (DEG/KT/KT) (MB)    (FT/S) (FT/S/D)
BUOY 41004       0310   55 74  290/ 29/ 37 1009.3
BUOY 41008       0250   54 60  290/ 25/ 29 1013.2R   4/ 4
FOLLY BEACH CMAN 0300   47     280/ 10/ 14 1011.4R
CAPERS NS BUOY   0308   47 57  300/ 21/ 29 1010.1R
FRIPP NS BUOY    0308   48 56  260/ 23/ 37 1011.9R
5E ST. MARYS GA  0300      62                N/A     3/ 3


STATION/POSITION TIME  TEMP    WIND        PRES    WAVE   SWELL
                       AIR SEA DIR/SP/G            HT/PER HT/PER/DIR
                 (UTC) (F)     (DEG/KT/KT) (MB)    (FT/S) (FT/S/D)
FRYING PAN BUOY  0310   56 63  290/ 31/ 39 1006.4
BUOY 41025       0310   54 71  310/ 27/ 37 1002.6
CAPE LOOKOUT NC  0300          320/ 24/ 32 1005.1R
BUOY 41002       0250   69 75  280/ 33/ 39 1003.4R  16/ 8
BUOY 41010       NOT AVBL
ST AUGUSTINE FL  0300   54 62  300/  7/ 11 1015.4R

$$




USA.gov is the U.S. government's official web portal to all federal, state and local government web resources and services.